FW5469 Weather Reports


Display with metric or nautical units.
time (UTC)temp
F
wind
direction
speed
MPH
gust
MPH
rain 1hr
in
rain 24hr
in
rain mn
in
humidity
%
barometer
mb
20260831091611 71 0 0.0 0.0 0.00 0.00 0.00 86 1017.1
20260831090105 71 0 0.0 0.0 0.00 0.00 0.00 86 1017.2
20260831084610 71 0 0.0 0.0 0.00 0.00 0.00 87 1017.1
20260831083108 71 0 0.0 0.0 0.00 0.00 0.00 87 1017.2
20260831081607 71 0 0.0 0.0 0.00 0.00 0.00 87 1017.1
20260831074604 71 0 0.0 0.0 0.00 0.00 0.00 88 1017.2
20260831073111 71 240 0.0 2.0 0.00 0.00 0.00 88 1017.0
20260831071606 71 0 0.0 0.0 0.00 0.00 0.00 89 1017.3
20260831070105 71 0 0.0 0.0 0.00 0.00 0.00 89 1017.3
20260831064604 71 0 0.0 2.0 0.00 0.00 0.00 89 1017.2
20260831063101 71 165 0.0 2.0 0.00 0.00 0.00 90 1017.5
20260831061626 71 167 1.0 3.0 0.00 0.00 0.00 90 1017.6
20260831060112 71 213 1.0 3.0 0.00 0.00 0.00 89 1017.6
20260831054608 72 160 1.0 2.0 0.00 0.00 0.00 89 1017.6
20260831053108 72 155 1.0 3.0 0.00 0.00 0.00 89 1017.6
20260831051610 72 165 2.0 4.0 0.00 0.00 0.00 89 1017.6
20260831050103 72 153 1.0 4.0 0.00 0.00 0.00 89 1017.7
20260831044608 72 0 0.0 2.0 0.00 0.00 0.00 89 1017.7
20260831043123 72 204 0.0 1.0 0.00 0.00 0.00 89 1017.8
20260831041645 72 0 0.0 0.0 0.00 0.00 0.00 89 1017.8
20260831040108 72 0 0.0 0.0 0.00 0.00 0.00 88 1017.8
20260831034607 72 0 0.0 2.0 0.00 0.00 0.00 88 1017.8
20260831033107 72 168 0.0 3.0 0.00 0.00 0.00 88 1017.9
20260831031607 72 164 1.0 2.0 0.00 0.00 0.00 89 1018.0
20260831030109 71 167 1.0 3.0 0.00 0.00 0.00 89 1018.1
20260831024621 71 0 0.0 0.0 0.00 0.00 0.00 89 1018.5
20260831023113 71 0 0.0 0.0 0.00 0.00 0.00 89 1018.5
20260831021604 71 0 0.0 0.0 0.00 0.00 0.00 89 1018.7
20260831020104 71 0 0.0 0.0 0.00 0.00 0.00 89 1018.6
20260831014601 71 0 0.0 0.0 0.00 0.00 0.00 89 1018.9
20260831013111 71 0 0.0 0.0 0.00 0.00 0.00 88 1018.9
20260831011601 71 0 0.0 0.0 0.00 0.00 0.00 88 1019.1
20260831010124 72 0 0.0 0.0 0.00 0.00 0.00 88 1018.9
20260831004604 72 0 0.0 0.0 0.00 0.00 0.00 88 1018.8
20260831003105 72 0 0.0 0.0 0.00 0.00 0.00 87 1018.8
20260831001607 73 0 0.0 0.0 0.00 0.00 0.00 86 1018.8
20260831000118 73 0 0.0 0.0 0.00 0.00 0.00 86 1018.6
20260830234603 73 0 0.0 0.0 0.00 0.00 0.00 85 1018.5
20260830233104 74 0 0.0 0.0 0.00 0.00 0.00 85 1018.3
20260830231605 74 0 0.0 0.0 0.00 0.00 0.00 84 1018.0
20260830230107 74 0 0.0 0.0 0.00 0.00 0.00 83 1017.6
20260830224605 75 0 0.0 0.0 0.00 0.00 0.00 82 1017.7
20260830223134 76 0 0.0 0.0 0.00 0.00 0.00 80 1017.5
20260830221608 76 0 0.0 2.0 0.00 0.00 0.00 80 1017.3
20260830220107 76 0 0.0 3.0 0.00 0.00 0.00 80 1017.1
20260830214606 76 222 0.0 5.0 0.00 0.00 0.00 80 1017.1
20260830213105 76 171 2.0 5.0 0.00 0.00 0.00 79 1016.9
20260830211607 76 0 0.0 3.0 0.00 0.00 0.00 80 1017.4
20260830210114 75 0 0.0 2.0 0.00 0.00 0.00 81 1017.5
20260830204605 75 0 0.0 1.0 0.00 0.00 0.00 82 1017.7
20260830203121 74 237 0.0 3.0 0.00 0.00 0.00 82 1017.6
20260830201613 74 238 1.0 3.0 0.00 0.00 0.00 83 1017.7
20260830200114 74 158 1.0 2.0 0.00 0.00 0.00 83 1017.8
20260830194610 74 0 0.0 2.0 0.00 0.00 0.00 82 1018.1
20260830193106 74 0 0.0 3.0 0.00 0.00 0.00 81 1018.5
20260830191610 75 0 0.0 2.0 0.00 0.00 0.00 79 1018.5
20260830190110 75 0 0.0 1.0 0.00 0.00 0.00 80 1018.9
20260830184621 75 233 1.0 2.0 0.00 0.00 0.00 78 1019.4
20260830183123 76 0 0.0 2.0 0.00 0.00 0.00 77 1019.5
20260830181602 75 326 0.0 2.0 0.00 0.00 0.00 78 1019.7
20260830180107 75 0 0.0 3.0 0.00 0.00 0.00 75 1019.8
20260830174605 75 355 1.0 3.0 0.00 0.00 0.00 75 1019.7
20260830173107 74 0 0.0 1.0 0.00 0.00 0.00 77 1019.8
20260830171638 74 315 0.0 4.0 0.00 0.00 0.00 79 1020.1
20260830170103 74 0 0.0 3.0 0.00 0.00 0.00 78 1020.2
20260830164604 74 0 0.0 4.0 0.00 0.00 0.00 80 1020.4
20260830163103 74 323 0.0 5.0 0.00 0.00 0.00 80 1020.6
20260830161601 74 0 0.0 3.0 0.00 0.00 0.00 82 1020.7
20260830160104 73 0 0.0 2.0 0.00 0.00 0.00 83 1020.6
20260830154607 73 0 0.0 2.0 0.00 0.00 0.00 80 1020.6
20260830153108 73 0 0.0 3.0 0.00 0.00 0.00 80 1020.5
20260830151612 74 0 0.0 2.0 0.00 0.00 0.00 78 1020.2
20260830150106 73 0 0.0 0.0 0.00 0.00 0.00 79 1020.0
20260830144604 73 0 0.0 0.0 0.00 0.00 0.00 79 1019.7
20260830143107 73 0 0.0 0.0 0.00 0.00 0.00 79 1019.7
20260830141606 73 0 0.0 0.0 0.00 0.00 0.00 78 1019.7
20260830134619 73 0 0.0 0.0 0.00 0.00 0.00 76 1019.3
20260830133109 73 0 0.0 3.0 0.00 0.00 0.00 74 1019.0
20260830131609 73 148 0.0 3.0 0.00 0.00 0.00 74 1018.7
20260830130117 73 231 0.0 4.0 0.00 0.00 0.00 74 1018.8
20260830124603 72 231 2.0 4.0 0.00 0.00 0.00 74 1018.7
20260830123104 71 226 0.0 4.0 0.00 0.00 0.00 76 1018.9
20260830121609 69 90 0.0 2.0 0.00 0.00 0.00 80 1018.9
20260830120109 68 0 0.0 0.0 0.00 0.00 0.00 80 1018.9
20260830114606 68 0 0.0 0.0 0.00 0.00 0.00 81 1018.7
20260830113105 68 0 0.0 0.0 0.00 0.00 0.00 81 1018.7
20260830111613 68 0 0.0 0.0 0.00 0.00 0.00 81 1018.7
20260830110105 68 0 0.0 0.0 0.00 0.00 0.00 81 1018.7
20260830104603 68 0 0.0 0.0 0.00 0.00 0.00 80 1018.8
20260830103102 68 0 0.0 0.0 0.00 0.00 0.00 80 1018.8
20260830101606 67 0 0.0 0.0 0.00 0.00 0.00 81 1019.0
20260830100110 67 0 0.0 0.0 0.00 0.00 0.00 81 1019.1
20260830094604 67 0 0.0 0.0 0.00 0.00 0.00 81 1019.0
20260830093101 67 0 0.0 0.0 0.00 0.00 0.00 81 1019.0